Wind_Speed
3 2 2 4 13 14 13 10 11 14 18 19 15 18 16 15 14 13 15 17 18 21 23 23 24 24 27 31 34 31 34 26 27 24 27 31 31 36 33 29 15 26 37 44 48 58 71 75 71
5 4 9 8 11 17 18 19 17 19 15 12 12 11 12 13 13 13 16 18 20 22 24 24 22 21 24 28 32 30 31 29 29 30 29 27 33 31 36 36 34 30 21 36 46 50 60 73 74
4 4 5 6 6 7 7 4 5 7 7 9 11 12 12 13 12 14 17 20 22 22 22 21 19 20 23 27 25 23 25 27 26 27 27 30 29 30 35 38 36 30 11 18 33 48 51 65 77
5 4 4 5 4 3 5 3 5 6 8 8 10 12 12 12 14 16 17 20 21 19 20 20 21 21 23 23 20 22 22 21 22 23 27 29 34 34 29 38 40 40 32 24 18 29 52 56 69
4 5 6 6 5 5 6 5 5 7 8 9 10 11 14 14 14 17 18 19 20 21 21 21 22 21 20 17 18 20 20 16 16 20 27 29 29 25 30 34 39 44 41 37 33 19 37 52 60
6 8 6 4 5 5 7 7 7 9 9 10 11 15 15 16 16 19 19 20 21 20 22 21 20 20 20 19 20 21 20 17 15 18 20 22 20 25 27 34 41 46 42 44 34 20 17 39 55
9 9 7 8 9 7 3 7 8 11 11 12 16 18 16 18 18 19 20 20 22 20 22 22 22 22 21 21 22 22 21 19 21 19 20 26 19 22 24 32 37 43 44 42 41 35 27 24 41
12 10 9 7 5 8 5 8 10 12 16 14 18 21 18 21 21 21 22 22 22 23 23 24 25 25 24 23 24 23 23 20 21 20 17 18 21 17 17 23 28 36 38 39 41 43 32 23 24
14 12 10 9 7 9 7 9 11 12 16 18 19 24 23 24 24 26 26 26 26 26 26 27 26 27 27 27 26 25 26 22 23 21 17 14 18 12 13 12 23 31 30 31 36 42 41 34 25
15 13 14 12 11 12 11 13 13 16 18 20 21 24 25 24 27 28 29 29 30 29 30 29 28 27 28 30 29 29 27 26 25 24 19 16 15 15 11 9 9 17 19 17 24 33 37 42 28
16 17 18 16 16 17 17 17 20 19 22 23 25 26 27 27 28 30 32 32 32 32 33 32 32 30 29 31 32 31 31 28 28 25 22 17 17 17 13 14 14 9 9 11 17 26 34 34 34
19 20 21 21 22 22 24 25 26 26 27 29 29 29 28 30 32 33 34 35 35 35 36 36 35 32 32 33 34 34 32 32 29 28 24 23 19 21 22 21 21 17 16 11 15 20 19 26 31
22 24 24 25 27 28 30 31 33 30 31 33 35 33 31 32 35 35 36 36 38 39 38 38 37 35 34 35 36 36 34 33 33 32 28 27 25 25 26 25 27 23 19 17 17 15 21 30 37
25 27 29 30 31 32 35 35 36 36 36 37 36 35 37 37 38 38 39 39 39 40 39 38 38 37 36 36 37 37 34 35 35 34 33 30 29 31 29 30 29 27 31 21 16 16 15 20 32
28 29 31 34 35 37 40 39 40 40 38 39 38 36 38 42 41 41 39 38 39 40 40 39 40 39 38 37 38 38 36 36 37 37 36 37 34 35 34 34 31 34 30 26 20 21 17 17 17
28 31 34 36 37 39 41 44 42 40 40 39 41 40 42 42 43 41 40 42 43 43 42 41 40 39 39 39 40 39 39 39 40 41 41 41 40 39 38 39 40 39 36 32 26 21 27 20 19
30 32 34 38 39 41 42 45 42 42 44 44 43 45 44 44 42 40 43 45 45 44 44 43 41 41 41 41 42 41 41 42 44 44 44 44 45 46 44 43 44 43 44 40 33 32 24 19 14
32 34 35 37 40 41 40 42 42 41 43 46 49 49 48 44 42 42 44 46 46 47 45 44 44 45 45 45 45 45 45 45 47 47 47 48 49 50 49 48 48 46 46 42 40 33 35 33 27
34 36 37 38 37 40 41 41 44 44 46 48 49 50 47 45 45 46 49 49 48 47 46 46 46 46 46 46 47 48 49 49 49 49 49 51 52 52 52 52 50 49 48 49 47 41 40 35 39
34 35 35 37 39 41 44 47 46 46 48 49 47 47 51 49 48 50 51 49 47 46 47 47 46 47 47 47 48 49 50 50 51 52 53 55 56 55 56 56 52 52 51 50 49 48 44 41 40
32 34 37 38 43 45 44 47 49 47 44 46 47 46 49 49 45 41 42 42 43 43 43 43 42 43 45 47 48 50 51 53 54 56 59 61 60 59 60 58 56 57 57 57 57 55 55 53 48
38 38 40 41 42 44 45 48 48 51 48 38 37 33 33 34 34 34 36 38 39 41 43 44 45 47 49 51 53 55 57 59 61 64 65 66 66 63 63 65 63 63 63 64 64 62 61 63 60
42 42 43 44 45 47 49 49 49 48 49 48 39 35 31 30 33 36 39 42 45 47 50 51 52 54 55 57 60 62 64 66 67 68 69 69 69 67 69 71 72 72 72 71 70 70 68 67 67
45 47 47 48 49 50 53 51 50 50 48 48 44 38 36 37 38 40 45 48 50 53 55 58 59 61 62 63 62 63 64 66 67 68 70 72 73 74 76 79 78 79 77 76 75 75 75 74 74
51 53 53 51 51 50 52 51 51 50 47 45 43 42 44 46 47 48 52 56 58 60 61 63 64 65 65 64 65 68 72 73 75 76 78 79 80 79 80 81 82 83 83 82 81 83 85 85 82
54 57 59 54 51 48 49 48 44 42 43 43 43 45 49 51 55 58 60 61 64 65 65 65 67 69 71 73 76 78 80 81 81 83 85 86 87 86 86 86 86 89 89 89 90 91 92 91 92
57 59 60 58 52 45 42 43 45 44 46 46 47 51 56 60 63 65 66 67 69 70 72 74 75 76 77 79 81 84 86 88 88 90 91 91 92 93 94 95 97 98 100 101 103 103 103 103 97
61 59 59 57 52 45 45 47 49 48 52 52 53 55 58 62 66 70 73 74 75 77 76 74 74 77 79 83 86 88 91 93 94 94 96 98 99 100 103 105 105 107 109 108 108 108 108 109 108
59 58 57 56 53 50 46 49 56 60 61 59 62 64 67 70 72 74 78 78 80 81 83 85 88 91 94 96 97 100 100 101 102 104 107 108 109 111 112 113 115 116 117 118 116 115 115 113 112
58 59 57 56 55 57 60 54 64 66 66 67 68 69 71 74 76 78 80 82 86 88 90 93 97 100 102 104 107 108 109 113 114 115 118 120 121 122 123 124 124 125 124 124 123 122 121 116 117
Wind_Direction
297 178 174 202 212 222 250 240 238 256 256 268 273 262 271 275 276 280 282 289 286 287 283 278 277 276 280 284 290 291 291 278 283 281 286 295 289 296 302 304 272 252 241 239 234 231 225 219 217
270 227 207 213 219 233 244 250 257 260 273 272 270 272 271 273 275 289 290 284 281 283 281 280 277 279 283 284 292 297 296 283 265 270 282 273 278 291 298 299 300 316 251 241 237 235 231 221 220
251 229 210 218 219 239 247 242 252 250 254 264 269 273 272 272 278 277 281 279 278 283 282 282 283 289 288 292 297 295 297 293 276 263 266 267 283 288 291 289 306 313 284 268 244 239 237 227 221
228 208 185 189 185 212 248 239 249 251 257 261 266 269 269 274 275 279 281 282 291 291 288 286 286 290 291 293 291 292 305 296 290 274 259 265 272 279 272 282 297 308 304 301 291 251 237 234 227
206 177 174 176 201 159 249 245 250 258 259 263 263 273 278 284 288 290 291 294 297 297 291 285 289 290 292 296 294 293 303 306 285 262 245 259 262 262 267 272 288 295 300 299 304 284 247 236 230
196 190 188 187 225 208 233 252 254 267 277 279 289 286 291 296 296 293 295 294 293 295 292 288 293 289 290 295 298 302 301 297 278 273 257 251 252 253 259 268 280 289 292 297 300 295 269 246 232
210 205 203 204 233 244 243 261 285 291 296 295 286 289 293 291 288 289 287 287 286 291 293 295 291 289 291 294 294 301 302 297 294 286 277 244 256 259 262 264 273 277 287 290 297 304 286 278 246
217 210 213 224 223 287 287 301 297 303 300 300 286 291 298 291 296 293 290 290 290 292 295 294 292 291 291 291 293 294 296 297 298 298 292 258 250 271 256 258 264 272 279 288 293 292 286 287 259
227 228 228 246 250 278 287 293 299 302 304 308 306 300 304 301 298 294 293 292 293 294 295 296 295 291 290 290 290 291 293 295 300 299 299 272 263 253 242 222 255 265 274 284 283 282 290 288 287
241 246 250 254 261 268 279 291 303 304 305 308 306 302 300 299 297 298 295 292 292 292 292 293 293 292 290 289 288 288 288 294 297 300 302 297 260 243 245 246 248 262 260 269 273 279 284 290 285
249 258 261 261 261 269 277 285 295 301 308 305 299 296 298 298 296 295 294 293 292 291 291 291 292 291 289 287 287 287 289 291 295 298 299 289 272 250 265 254 260 233 248 266 280 277 280 277 274
253 259 263 263 268 274 279 284 288 297 307 302 302 295 291 296 296 294 291 290 291 291 290 289 290 289 288 288 288 288 286 288 289 292 295 300 286 267 284 268 258 257 286 277 290 271 260 261 273
259 263 267 270 272 275 278 281 285 292 296 304 301 297 290 293 296 295 289 287 287 286 287 288 287 286 284 285 286 286 287 286 288 291 294 294 296 287 283 285 285 269 269 264 270 259 259 258 264
266 266 268 272 276 279 280 281 285 290 295 298 296 296 293 295 297 294 291 287 285 286 287 286 285 283 284 284 282 283 284 284 286 287 292 290 293 294 296 294 291 291 273 239 248 254 259 238 257
267 269 271 273 276 278 281 282 286 291 294 294 293 294 292 295 296 295 290 287 287 288 285 284 283 284 283 280 279 280 282 283 285 287 287 289 291 293 293 296 293 297 297 277 254 231 248 232 246
276 275 274 274 276 277 280 284 288 289 291 292 292 291 291 293 293 292 289 288 287 284 284 282 282 281 279 278 278 279 282 282 283 285 287 289 291 293 295 293 295 295 300 300 298 253 232 237 249
278 278 279 281 282 282 283 285 287 290 291 289 288 290 291 292 290 289 288 286 286 284 283 282 279 278 276 274 275 278 279 280 281 283 285 288 291 294 296 296 295 297 300 302 299 308 271 266 248
279 280 280 281 284 287 288 288 287 286 286 287 289 290 290 288 287 287 288 288 286 284 283 281 278 277 276 274 275 276 277 277 279 281 284 286 289 292 295 296 295 296 296 293 297 302 302 307 298
279 281 284 287 288 289 288 286 287 286 285 284 286 287 286 285 284 284 286 287 284 283 283 280 280 279 277 274 274 274 275 276 279 282 284 286 289 291 292 292 293 291 290 294 294 295 295 299 301
280 284 286 288 288 289 291 292 289 290 290 289 287 286 286 286 286 286 285 284 284 283 282 283 283 282 280 280 278 278 279 280 281 283 285 286 288 290 290 290 290 289 290 290 289 289 293 299 299
284 284 285 287 292 294 295 298 299 297 295 293 290 288 289 290 290 289 287 286 286 284 284 284 284 284 283 280 280 281 281 282 283 284 285 286 286 287 287 286 288 289 289 288 286 286 288 294 300
285 286 287 289 291 294 298 299 301 302 301 297 296 294 292 296 299 295 293 291 290 290 290 291 289 286 285 285 285 284 284 284 284 284 285 285 285 285 285 284 284 285 285 283 283 285 287 289 294
288 288 290 292 293 295 296 299 298 296 297 298 294 289 286 292 295 296 294 293 291 290 289 287 285 284 283 282 282 282 284 284 284 284 284 284 285 285 284 284 286 285 285 284 285 286 288 289 292
287 286 287 288 291 295 297 296 293 291 292 293 292 288 286 286 288 290 291 289 287 286 285 284 283 282 282 282 282 281 281 282 284 283 283 283 283 282 282 282 283 283 283 284 285 287 288 289 291
290 288 287 287 290 295 295 294 293 293 291 286 285 286 288 287 288 290 291 291 292 291 289 287 285 284 282 281 281 283 283 283 284 283 282 281 281 281 282 282 282 282 280 280 281 283 286 287 288
291 291 291 290 292 294 293 290 288 292 290 283 279 282 286 287 288 289 288 288 289 288 286 284 283 283 282 281 281 282 284 282 280 280 280 280 280 278 277 278 278 278 280 280 280 281 285 286 287
293 291 292 293 295 291 288 282 286 291 295 296 293 289 286 288 289 288 289 291 290 287 285 284 285 285 283 283 283 283 284 284 283 282 283 283 281 280 278 278 279 278 278 279 281 281 283 284 286
293 293 293 293 294 289 284 278 284 288 288 290 291 290 291 291 290 291 291 290 288 287 286 283 283 283 283 284 284 284 284 282 282 281 281 281 281 280 281 280 279 280 280 280 281 281 282 282 283
290 292 292 292 292 289 285 281 285 286 289 290 287 286 285 284 286 288 288 288 287 285 284 282 282 284 284 283 283 284 283 281 280 280 281 280 281 280 280 281 280 280 280 281 282 280 279 282 282
290 291 290 290 291 291 290 291 284 287 288 286 284 284 284 285 286 287 287 286 285 285 284 283 282 282 281 281 281 281 280 280 280 279 280 280 279 280 281 281 282 282 281 281 280 280 280 282 282
Height
10769 10769 10769 10770 10771 10771 10772 10772 10773 10774 10775 10775 10774 10774 10774 10773 10773 10773 10772 10772 10772 10771 10770 10770 10769 10768 10769 10767 10765 10764 10763 10763 10763 10759 10757 10753 10748 10746 10744 10746 10746 10746 10749 10751 10754 10758 10762 10768 10773
10768 10768 10769 10769 10770 10769 10770 10769 10771 10770 10772 10771 10771 10771 10771 10771 10771 10770 10769 10768 10767 10767 10765 10765 10765 10765 10765 10764 10761 10759 10757 10757 10758 10755 10753 10749 10745 10744 10741 10738 10738 10742 10744 10745 10747 10751 10755 10760 10766
10767 10768 10768 10769 10769 10768 10768 10768 10768 10768 10769 10769 10769 10768 10768 10768 10767 10766 10766 10765 10762 10763 10762 10761 10761 10761 10761 10759 10757 10755 10753 10752 10752 10750 10749 10745 10745 10743 10739 10733 10734 10734 10738 10742 10743 10743 10746 10750 10757
10767 10766 10767 10768 10768 10768 10766 10767 10766 10766 10766 10766 10766 10765 10765 10765 10763 10763 10762 10761 10760 10759 10758 10757 10757 10757 10756 10755 10753 10751 10749 10748 10748 10748 10746 10744 10742 10740 10736 10730 10729 10727 10731 10734 10736 10736 10736 10740 10745
10765 10764 10765 10766 10766 10766 10765 10764 10764 10764 10764 10763 10762 10762 10760 10760 10760 10758 10757 10756 10755 10755 10754 10754 10753 10753 10752 10750 10748 10747 10745 10744 10744 10742 10740 10739 10737 10735 10732 10727 10726 10721 10724 10725 10726 10729 10730 10732 10735
10763 10762 10763 10764 10764 10764 10763 10762 10762 10761 10760 10759 10759 10758 10757 10756 10756 10754 10753 10752 10751 10751 10750 10750 10749 10749 10747 10745 10744 10742 10741 10740 10739 10737 10735 10734 10732 10729 10727 10724 10722 10719 10719 10716 10718 10721 10723 10722 10724
10761 10761 10761 10761 10761 10760 10761 10760 10759 10758 10757 10758 10756 10754 10755 10753 10753 10751 10750 10749 10746 10747 10746 10745 10745 10744 10743 10741 10740 10738 10736 10734 10734 10732 10729 10729 10727 10724 10724 10720 10718 10715 10712 10711 10712 10712 10716 10718 10718
10759 10760 10760 10759 10759 10757 10758 10757 10757 10756 10754 10755 10753 10751 10751 10749 10748 10747 10745 10744 10743 10741 10741 10739 10739 10738 10737 10736 10735 10733 10731 10730 10728 10727 10725 10722 10722 10720 10720 10716 10714 10712 10709 10707 10706 10705 10708 10711 10714
10756 10757 10757 10756 10756 10755 10755 10754 10754 10753 10752 10751 10750 10746 10746 10745 10743 10741 10740 10738 10737 10736 10735 10734 10733 10732 10731 10730 10729 10727 10725 10725 10724 10722 10720 10717 10716 10715 10714 10712 10711 10707 10704 10704 10700 10699 10698 10702 10705
10754 10755 10754 10754 10752 10751 10751 10750 10750 10749 10748 10747 10745 10742 10741 10740 10738 10736 10735 10733 10731 10730 10729 10727 10727 10726 10725 10723 10723 10722 10721 10719 10718 10716 10715 10712 10711 10710 10709 10708 10707 10703 10702 10700 10696 10692 10691 10692 10696
10751 10751 10750 10750 10749 10747 10746 10745 10744 10745 10744 10743 10740 10738 10735 10734 10733 10731 10728 10727 10726 10724 10722 10720 10719 10719 10718 10716 10715 10715 10713 10712 10711 10709 10708 10707 10705 10704 10704 10702 10702 10700 10697 10695 10692 10687 10685 10683 10685
10747 10746 10746 10746 10745 10743 10741 10740 10739 10738 10739 10736 10735 10732 10731 10728 10726 10724 10722 10720 10718 10716 10714 10713 10712 10712 10710 10708 10707 10706 10705 10703 10703 10701 10700 10699 10698 10697 10697 10696 10696 10694 10692 10690 10685 10681 10677 10675 10674
10742 10741 10741 10740 10739 10739 10736 10734 10732 10734 10733 10731 10727 10724 10724 10722 10718 10716 10713 10711 10710 10708 10707 10704 10703 10703 10702 10701 10699 10697 10696 10695 10694 10693 10692 10691 10690 10690 10688 10687 10686 10684 10685 10683 10680 10678 10674 10669 10667
10736 10735 10735 10734 10733 10733 10729 10728 10726 10727 10726 10724 10721 10717 10713 10712 10710 10707 10704 10702 10700 10698 10697 10695 10694 10694 10693 10691 10689 10688 10687 10686 10685 10684 10683 10683 10681 10679 10677 10677 10676 10674 10673 10674 10672 10671 10669 10664 10662
10729 10729 10728 10727 10727 10725 10721 10721 10720 10718 10717 10713 10711 10711 10707 10703 10700 10698 10695 10693 10691 10689 10687 10686 10685 10684 10683 10681 10680 10679 10678 10677 10675 10675 10674 10672 10672 10670 10669 10666 10666 10665 10663 10662 10662 10661 10660 10660 10658
10723 10722 10721 10720 10719 10718 10715 10710 10712 10710 10707 10706 10700 10701 10698 10695 10691 10688 10686 10683 10681 10678 10677 10676 10675 10673 10672 10670 10669 10668 10667 10666 10665 10663 10662 10661 10660 10659 10658 10657 10654 10653 10653 10651 10651 10650 10653 10651 10650
10716 10715 10713 10710 10710 10708 10706 10702 10704 10701 10696 10694 10693 10690 10688 10685 10681 10679 10675 10672 10669 10667 10666 10665 10663 10662 10660 10659 10657 10657 10656 10655 10653 10652 10651 10650 10649 10648 10648 10646 10644 10642 10641 10640 10639 10639 10642 10638 10639
10708 10707 10706 10704 10701 10698 10697 10693 10693 10692 10689 10684 10680 10679 10677 10675 10672 10668 10664 10660 10658 10656 10655 10654 10652 10650 10649 10647 10646 10645 10644 10643 10641 10641 10639 10637 10636 10635 10634 10633 10631 10629 10629 10628 10627 10627 10628 10626 10627
10700 10699 10697 10696 10694 10689 10688 10685 10681 10681 10678 10674 10671 10666 10664 10664 10662 10657 10653 10649 10646 10645 10644 10642 10641 10638 10637 10635 10634 10632 10631 10630 10629 10629 10627 10625 10624 10623 10621 10619 10618 10618 10616 10613 10613 10613 10614 10615 10614
10692 10691 10690 10687 10684 10681 10676 10672 10671 10671 10667 10663 10662 10657 10650 10650 10649 10645 10639 10637 10635 10633 10631 10630 10629 10627 10625 10624 10622 10621 10619 10618 10617 10616 10614 10613 10610 10609 10607 10605 10605 10603 10602 10601 10601 10601 10600 10601 10601
10684 10683 10681 10679 10674 10669 10667 10661 10657 10657 10657 10651 10648 10647 10639 10635 10635 10632 10627 10626 10623 10621 10619 10618 10617 10615 10613 10611 10609 10607 10606 10604 10603 10601 10598 10595 10594 10592 10590 10589 10589 10587 10587 10585 10585 10585 10583 10584 10586
10674 10673 10671 10668 10666 10661 10657 10653 10648 10642 10640 10642 10637 10636 10630 10625 10623 10620 10618 10616 10613 10611 10609 10608 10605 10603 10601 10598 10596 10594 10592 10590 10587 10584 10581 10577 10575 10576 10574 10571 10571 10572 10571 10570 10569 10569 10568 10565 10566
10665 10663 10661 10658 10654 10651 10646 10643 10637 10633 10628 10625 10627 10626 10625 10619 10614 10610 10607 10605 10602 10599 10596 10594 10590 10587 10586 10583 10579 10576 10574 10572 10569 10566 10563 10559 10557 10557 10555 10552 10551 10550 10549 10547 10547 10547 10547 10545 10544
10654 10651 10650 10647 10643 10640 10633 10628 10623 10621 10619 10614 10612 10612 10612 10611 10608 10602 10595 10592 10589 10586 10583 10579 10576 10573 10569 10565 10562 10558 10555 10551 10548 10546 10543 10540 10538 10537 10534 10530 10529 10528 10526 10525 10524 10523 10523 10523 10524
10642 10638 10636 10637 10632 10629 10621 10616 10611 10607 10606 10604 10602 10599 10596 10595 10594 10592 10586 10579 10574 10571 10567 10563 10558 10554 10550 10546 10542 10538 10534 10531 10528 10524 10521 10517 10515 10514 10512 10508 10506 10504 10502 10500 10499 10498 10499 10499 10499
10628 10622 10618 10621 10622 10619 10609 10604 10599 10593 10592 10591 10590 10587 10581 10578 10575 10571 10568 10564 10559 10554 10549 10544 10539 10534 10530 10526 10522 10518 10513 10509 10503 10500 10496 10493 10491 10489 10486 10483 10480 10477 10476 10474 10473 10472 10473 10474 10474
10616 10610 10605 10603 10605 10604 10599 10592 10586 10583 10579 10579 10577 10574 10568 10561 10556 10552 10550 10547 10542 10534 10528 10522 10517 10512 10507 10501 10497 10492 10487 10482 10476 10471 10468 10465 10462 10459 10457 10455 10452 10450 10448 10448 10447 10445 10445 10447 10448
10597 10595 10592 10588 10588 10590 10586 10578 10574 10573 10569 10567 10563 10557 10550 10543 10537 10531 10527 10524 10519 10512 10507 10503 10496 10490 10484 10478 10472 10466 10460 10453 10447 10442 10438 10435 10431 10428 10425 10423 10421 10418 10416 10415 10415 10414 10414 10416 10417
10584 10581 10577 10573 10571 10569 10569 10566 10559 10554 10552 10552 10545 10539 10533 10527 10522 10517 10509 10504 10496 10490 10485 10480 10473 10466 10459 10452 10445 10439 10431 10424 10419 10414 10408 10404 10399 10394 10391 10388 10385 10383 10381 10379 10380 10379 10379 10381 10382
10571 10566 10562 10560 10558 10554 10547 10555 10537 10536 10534 10527 10522 10517 10512 10507 10503 10499 10493 10487 10476 10467 10463 10457 10448 10440 10431 10423 10416 10408 10400 10393 10387 10380 10375 10370 10365 10361 10358 10353 10350 10346 10342 10339 10339 10339 10340 10345 10346